Regional Weather Roundup
Issued by NWS Upton, NY

Home | Current Version | Previous Version | Text Only | Print | Product List | Glossary On
Versions: 1 2 3 4 5 6 7 8 9 10 11 12 13 14 15 16 17 18 19 20 21 22 23 24 25 26 27 28 29 30 31 32 33 34 35 36 37 38 39 40 41 42 43 44 45 46 47 48 49 50
000
ASUS41 KOKX 261405
RWROKX

Regional Weather Roundup
National Weather Service New York NY
1000 AM EDT THU APR 26 2018

Note: "FAIR" indicates few or no clouds below 12,000 feet with no
significant weather and/or obstructions to visibility.

NYZ071-072-176-178-NJZ106-104-261500-
New York City Metro Area

CITY           SKY/WX    TMP DP  RH WIND       PRES   REMARKS
Central Park   FAIR      57  42  57 VRB7G22   29.74R
Bronx Bot Gard   N/A     59  41  51 W6        29.73R
Bronx Lehman C   N/A     57  43  58 W14         N/A
LaGuardia Arpt FAIR      58  42  55 W21G29    29.71R
Queens College   N/A     57  43  58 W15         N/A
Kennedy Intl   FAIR      60  42  51 NW17G23   29.72R
Breezy Point     N/A     57 N/A N/A NW13G21     N/A
Brooklyn Coll    N/A     57  39  51 W13G25      N/A
Staten Island    N/A     57  41  54 W15         N/A
Newark/Liberty FAIR      59  42  53 W16       29.73R
Teterboro      FAIR      58  43  57 NW18G26   29.71R
$$

NYZ177-179-078>081-261500-
Long Island New York

CITY           SKY/WX    TMP DP  RH WIND       PRES   REMARKS
Jones Beach      N/A     57 N/A N/A W18         N/A
Wantagh          N/A     61  46  59 W14         N/A
Hempstead        N/A     59  48  67 W13       29.72R
Matinecock Pt    N/A     55 N/A N/A W18         N/A
Farmingdale    FAIR      61  48  62 W15G21    29.69R
MacArthur/ISP  PTSUNNY   63  49  60 W16       29.68R
Stony Brook      N/A     57  46  67 W9          N/A
Shirley        CLOUDY    62  52  69 NW13      29.68R
Mt Sinai Harb    N/A    N/A N/A N/A W9G16       N/A
Westhampton    CLOUDY    61  52  72 W13       29.67R
East Hampton   CLOUDY    58  54  88 NW9       29.65R
Southold         N/A     57  54  88 W8          N/A
Montauk          N/A     56  54  93 W10       29.65R
$$

NYZ052-065-067-261500-
Hudson Valley

CITY           SKY/WX    TMP DP  RH WIND       PRES   REMARKS
White Plains   FAIR      57  44  62 NW18      29.69R
Larchmont Harb   N/A     55 N/A N/A W16         N/A
Croton On Huds   N/A     55 N/A N/A SW16        N/A
Somers           N/A     55  43  62 W7          N/A
Brewster         N/A     55  46  71 NW10        N/A
Newburgh       MOSUNNY   55  45  67 W18G28    29.71R
Montgomery     CLOUDY    54  41  61 NW12G18   29.71R
Otisville        N/A     50  41  71 W5          N/A
Warwick          N/A     54  41  62 NW15        N/A
Suffern          N/A     54  41  62 W8          N/A
Poughkeepsie   CLOUDY    56  44  64 W12       29.68R
Albany         PTSUNNY   54  43  66 NW9       29.69S
$$

NJZ001-105-106-008-010-013-015-019>022-104-261500-
New Jersey

CITY           SKY/WX    TMP DP  RH WIND       PRES   REMARKS
Newark/Liberty FAIR      59  42  53 W16       29.73R
Teterboro      FAIR      58  43  57 NW18G26   29.71R
Caldwell       FAIR      56  40  55 NW15G22   29.74R
Somerville     FAIR      56  40  55 N16       29.75R
Linden         FAIR      58  42  55 NW20      29.74R
Perth Amboy      N/A     54 N/A N/A W18G24      N/A
Sussex         PTSUNNY   54  40  59 NW12G20   29.75R
Andover          N/A     52  39  61 VRB6      29.76R
Trenton        FAIR      57  41  55 NW13G21   29.77R
Millville      FAIR      57  40  52 W15G23    29.81S
Atlantic City  FAIR      58  42  55 W14       29.80R
Wrightstown    FAIR      57  42  56 W14       29.76R
Toms River     FAIR      59  43  55 W17       29.78R
Belmar         FAIR      56  42  59 W18G25    29.75
$$

PAZ047>061-062-071-261500-
Eastern Pennsylvania

CITY           SKY/WX    TMP DP  RH WIND       PRES   REMARKS
Philadelphia   FAIR      56  38  50 NW12G21   29.81R
Allentown      CLOUDY    55  40  56 W12G20    29.78R
Scranton       CLOUDY    52  39  61 NW10      29.77R
$$

CTZ002-004>006-009-010-012-RIZ004-006-007-MAZ004-011-015-261500-
Southern New England

 In CT

CITY           SKY/WX    TMP DP  RH WIND       PRES   REMARKS
Bradley Intl   PTSUNNY   58  49  72 NW8       29.64R
Hartford       CLOUDY    59  51  75 VRB7      29.64S
Danbury        CLOUDY    56  47  71 W13G18    29.69R
Wtrbury/Oxford CLOUDY    53  51  93 W10       29.67R
Norwalk Harbor   N/A     57 N/A N/A W14         N/A
Bridgeport     CLOUDY    60  51  72 W8        29.66R
Meriden        CLOUDY    59  50  72 W6        29.65S
New Haven      CLOUDY    59  52  77 VRB6      29.65R
Chester        FAIR      61  52  72 NW7G18    29.64S
Groton         PTSUNNY   58  56  93 VRB3      29.62S
Willimantic    CLOUDY    60  50  69 NW6       29.62S

 In RI

CITY           SKY/WX    TMP DP  RH WIND       PRES   REMARKS
Providence     PTSUNNY   60  57  89 W12       29.61R
Block Island   LGT RAIN  52  52 100 W14       29.63F VSB 1/4
Westerly       CLOUDY    56  55  97 W7        29.63R

In MA

CITY           SKY/WX    TMP DP  RH WIND       PRES   REMARKS
Boston         CLOUDY    58  56  93 SW12      29.57S
Worcester      CLOUDY    54  49  83 W15       29.60R
Westfield      CLOUDY    57  48  72 NW13      29.63S
Provincetown   FOG       55  55 100 SW12      29.59S VSB 1/2
Nantucket      FOG       50  50 100 S7        29.63S VSB 1/4
$$

ANZ330-335-338-340-345-350-353-355-261500-
Coastal Marine Observations


STATION/POSITION TIME  SKY/WX   TEMP    WIND        PRES    VSBY  WAVE
                                AIR SEA DIR/SP/G                  HT/PER
                 (UTC)          (F)     (DEG/KT/KT) (MB)    (MI)  (FT/S)
NY Harb Entrance 1350            52 47  280/ 14/ 19 1006.6          7/11
20 S Fire Island 1350            49 44  250/  8/ 10 1006.2          8/11
23 SSW Montauk P 1350            47 44  240/ 12/ 14 1004.5         11/12
15 E Barnegat Li 1330               46                N/A           7/12
Hudson Canyon    1350            50 45  260/ 16/ 17 1006.7         10/11
Kings Point      1348            55 47  340/ 12/ 16 1006.8
Execution Rocks  NOT AVBL
Western LI Sound NOT AVBL
Central LI Sound 1345            49     250/ 10/ 14   N/A           1
Robbins Reef     1348            55     290/ 20/ 24 1006.9
$$


>>>>>>>>>>>>>>>>>>>>>>>>>>>> KEY <<<<<<<<<<<<<<<<<<<<<<<<<<<
>                                                          <
>     SKY/WX - Sky Condition/Present Weather               <
>     TMP    - Temperature in Fahrenheit                   <
>     DP     - Dew Point in Fahrenheit                     <
>     RH     - Relative Humidity in Percent                <
>     WIND   - Direction (from) and Speed in MPH           <
>     PRES   - Mean Sea Level Pressure (inches of Hg)      <
>     WCI    - Wind Chill Index                            <
>     VSB    - Visibility in Miles                         <
>     HX     - Heat Index                                  <
>     TC     - Temperature in Celsius                      <
>     VRB    - Varibale Wind Direction                     <
>                                                          <
>>>>>>>>>>>>>>>>>>>>>>>>>>>> KEY <<<<<<<<<<<<<<<<<<<<<<<<<<<



USA.gov is the U.S. government's official web portal to all federal, state and local government web resources and services.